Dewpoint
76 74 74 73 72 71 71 70 58 62 59 53 56 59 58 61 61 58 59 61 59 60 60 60 62 63 66 64 63 64 65 58 63 52 51 66 70 71 72 73 73 73 74 74 74 75 75 76 76 76 76 76 76 76 76 76 76 76 77 77 77 77 77 77 77 77 77 77 77 77 76 76 77 76 76 76 76 76 76 76 76 76 75 75 75 75 75 75 75 75 75 75 75 75 75 74 74
75 74 74 73 70 68 66 69 59 57 58 54 54 57 55 58 58 57 58 60 58 59 61 62 63 65 64 64 64 62 63 65 66 66 68 70 71 71 73 73 73 73 74 74 74 74 75 76 76 76 76 76 76 76 76 76 76 76 77 77 77 77 77 77 77 77 77 78 78 77 77 76 76 76 76 76 76 76 76 76 76 75 75 75 75 75 75 75 75 75 75 75 75 75 75 75 74
75 74 73 72 69 68 68 66 54 54 52 50 55 57 55 55 55 57 58 59 60 61 62 62 62 62 62 62 61 61 60 67 67 68 68 71 69 71 73 74 74 74 74 74 74 74 75 75 76 76 76 76 76 76 76 76 76 76 76 77 77 77 77 77 77 77 77 77 77 77 77 77 77 77 76 76 76 76 76 76 76 75 75 75 75 75 75 75 75 75 74 75 75 75 75 75 74
74 72 69 69 66 69 63 61 56 54 51 52 53 55 55 53 54 57 58 59 60 60 59 59 59 61 61 61 62 64 64 65 67 68 68 69 69 72 73 74 75 74 74 75 75 75 75 76 76 76 76 76 76 76 76 76 76 76 76 77 77 77 77 77 77 77 77 77 77 77 77 76 76 77 77 77 76 76 76 76 76 75 75 75 75 75 75 75 74 74 74 74 74 74 74 75 75
70 70 68 67 66 63 62 57 58 58 51 53 49 53 54 53 55 57 58 59 59 60 60 61 61 62 62 61 62 62 64 67 68 69 69 71 72 72 73 74 74 74 74 74 75 75 75 76 76 76 76 76 76 75 75 75 76 76 77 77 76 77 77 77 77 77 77 77 77 77 76 77 77 77 77 76 76 76 76 76 75 75 75 75 75 75 75 75 74 74 74 74 74 74 74 74 74
69 68 69 68 64 65 59 56 55 54 53 55 53 51 52 54 54 55 57 59 60 60 60 60 59 60 62 62 64 64 66 64 68 69 70 71 72 73 73 74 73 73 74 74 75 75 75 76 76 76 76 76 76 76 75 76 77 77 77 77 77 77 77 77 77 77 77 77 77 77 77 77 77 77 77 76 76 76 76 75 75 75 75 75 75 75 75 74 74 74 74 74 74 74 74 75 75
67 68 67 67 66 64 56 55 54 54 53 53 53 50 51 54 55 56 58 59 60 60 62 61 63 63 62 64 65 66 68 68 68 69 70 71 72 73 73 73 73 73 74 74 75 75 75 76 76 76 76 76 76 75 75 76 76 76 76 76 76 77 77 77 77 77 77 76 76 76 76 77 77 76 76 76 75 76 75 75 75 75 75 75 75 75 75 74 74 74 74 74 74 74 74 74 74
72 67 67 64 60 58 56 55 54 53 50 52 53 51 53 54 56 58 58 58 58 58 60 61 61 62 62 64 63 68 68 68 69 70 71 71 72 73 73 73 73 73 73 74 75 75 76 76 76 76 76 77 76 76 75 75 76 76 76 76 77 76 77 77 77 77 77 76 76 76 76 77 77 76 76 76 76 75 76 76 76 75 75 75 75 75 74 74 75 74 74 74 74 74 74 74 74
70 68 66 59 56 56 53 53 54 55 51 51 50 54 56 53 55 56 57 58 59 60 60 61 61 59 63 64 65 67 69 69 70 72 71 72 72 72 72 73 72 73 73 74 75 75 75 76 76 76 76 77 77 76 76 76 76 77 77 77 77 76 77 77 77 77 76 76 76 76 76 77 77 76 76 75 75 76 76 75 75 75 75 75 75 74 74 74 74 74 74 74 74 74 74 74 74
67 67 60 57 55 51 50 48 49 49 49 50 49 51 50 52 54 57 58 58 59 59 60 61 62 62 63 63 65 66 68 70 71 71 71 72 72 72 72 73 73 73 73 74 74 75 75 77 76 76 76 77 77 77 77 77 77 77 77 77 76 76 76 77 77 76 76 76 76 76 76 76 76 76 75 75 76 76 75 75 75 75 75 75 74 74 74 74 73 74 74 74 74 74 74 74 74
64 67 62 55 52 49 47 43 42 42 47 47 49 50 50 54 56 56 58 58 59 60 62 63 62 62 63 64 65 68 70 70 70 70 71 71 71 72 72 72 72 73 73 74 75 75 75 75 77 76 76 76 77 77 77 77 77 77 77 77 76 76 76 77 77 76 76 76 76 76 76 76 77 76 75 75 76 75 75 75 74 74 75 74 74 74 74 74 74 74 74 74 74 73 74 74 73
61 60 57 53 51 48 46 44 40 43 47 47 49 51 51 54 57 58 58 58 60 61 61 62 62 64 63 64 66 68 69 69 70 70 71 71 71 72 72 72 72 73 73 74 75 75 75 75 75 76 77 77 77 77 77 77 77 77 77 77 77 77 76 77 76 76 76 76 76 76 76 76 76 76 76 75 76 76 75 75 75 75 75 75 74 75 75 75 74 74 74 73 73 73 74 74 74
63 55 55 50 49 47 47 45 42 46 49 49 49 50 54 55 56 58 58 58 59 59 58 61 64 64 62 64 67 67 68 69 69 70 71 71 71 71 72 72 72 73 74 74 74 75 75 75 75 76 76 77 77 77 77 77 77 77 77 77 77 77 77 77 76 76 76 76 76 76 76 76 76 76 76 76 76 76 75 76 75 76 75 76 76 75 75 75 74 74 73 73 73 73 74 74 74
61 56 52 48 51 47 45 42 44 39 39 44 48 50 51 55 57 58 58 57 57 58 61 64 63 64 64 65 67 66 67 68 69 71 71 71 71 71 71 72 72 73 74 74 74 74 75 75 75 75 75 75 75 76 77 78 78 78 77 77 77 77 77 77 76 76 76 76 76 76 76 76 77 76 76 76 76 76 76 76 76 76 76 75 75 75 75 75 75 74 74 73 74 73 74 74 74
60 60 54 53 47 45 47 47 42 41 41 41 49 50 50 54 57 57 57 57 58 61 62 63 65 63 62 63 64 66 67 68 69 70 71 71 71 71 72 72 72 73 73 74 74 74 74 75 75 75 76 75 75 75 76 76 78 78 77 77 77 77 77 77 76 76 76 76 76 76 76 77 76 77 77 76 76 76 76 76 76 75 75 74 73 74 74 74 75 75 75 74 74 74 74 74 74
59 54 53 50 46 44 43 45 45 40 43 43 46 49 49 53 56 56 57 59 59 61 62 61 64 60 64 64 65 66 67 68 69 70 70 70 71 71 71 71 71 72 73 73 74 74 74 74 74 75 75 75 75 76 76 76 77 77 77 77 77 77 77 77 76 76 76 76 76 76 76 76 76 76 76 76 76 77 76 76 76 75 74 74 75 74 75 75 75 75 75 75 75 75 75 75 75
55 54 52 48 42 44 45 41 44 50 43 44 40 44 47 50 52 56 59 60 58 59 60 62 62 65 64 64 66 67 67 68 69 69 70 70 71 71 71 71 71 72 72 73 73 74 74 74 74 74 75 75 76 76 76 76 76 77 77 77 77 77 77 77 76 76 76 76 76 76 76 77 76 76 75 76 76 77 76 76 76 75 74 74 74 74 75 75 75 75 76 76 75 75 75 75 75
50 50 50 45 43 43 44 39 45 44 45 42 42 46 48 50 54 56 58 58 58 58 59 61 63 63 65 66 67 67 67 67 68 68 69 70 70 70 70 71 71 71 72 72 73 73 74 74 74 74 75 75 76 76 76 76 76 76 76 76 76 76 76 76 76 75 76 76 76 76 76 77 75 75 75 76 76 76 76 76 76 76 75 75 75 75 75 75 76 76 76 75 75 76 75 75 76
49 49 45 43 43 43 44 43 46 43 42 44 44 48 49 51 54 56 55 56 57 57 59 61 62 64 65 66 67 67 67 67 67 68 69 69 69 69 70 70 71 71 71 72 72 73 73 74 74 74 75 75 75 76 76 76 76 76 76 76 76 76 77 76 76 77 75 75 76 75 76 76 75 75 76 77 77 77 77 76 76 76 76 76 75 75 76 76 76 76 76 76 76 76 76 75 75
48 48 47 44 44 43 44 43 44 43 43 43 43 47 48 51 53 55 55 55 56 57 58 60 62 63 64 65 66 67 67 67 67 68 68 69 69 69 70 70 70 71 71 71 72 73 73 74 74 74 75 75 75 75 75 76 76 76 76 76 76 76 76 77 75 76 75 75 75 75 76 75 76 75 78 76 76 76 77 77 77 77 76 76 76 77 77 77 77 77 77 76 77 78 75 75 76
46 45 44 44 44 43 43 41 44 44 44 42 42 43 46 48 50 53 55 54 54 57 59 60 61 63 64 65 66 66 66 66 67 67 68 68 69 69 70 70 70 71 71 71 72 73 73 74 74 74 75 75 74 75 75 75 75 75 76 76 76 76 76 76 75 75 75 75 75 76 75 76 75 75 75 75 74 75 76 76 76 76 76 75 77 75 76 76 77 76 76 77 76 76 76 76 75
44 44 44 44 43 42 42 41 43 43 45 41 39 42 45 44 46 51 53 51 53 57 59 61 62 63 64 65 66 66 66 66 66 67 67 68 68 69 69 70 70 71 71 71 72 73 73 73 74 74 74 74 74 74 74 75 76 75 75 76 75 75 76 75 75 75 75 75 75 75 76 75 75 75 75 75 75 75 74 75 75 75 75 76 77 75 75 75 75 75 75 75 75 75 75 74 74
40 38 40 42 43 41 39 40 42 43 42 37 37 38 39 42 42 51 51 50 54 59 60 61 62 63 65 66 66 66 66 66 66 66 67 67 68 68 69 69 70 70 71 71 72 73 73 73 74 74 74 74 74 74 74 75 75 75 75 75 75 75 75 75 75 75 75 75 75 75 75 75 75 75 75 75 74 75 74 75 75 75 75 75 75 75 75 75 74 74 74 74 74 74 73 73 73
38 35 33 37 41 41 39 40 43 42 43 36 36 36 36 37 38 47 48 50 57 59 60 62 63 64 65 65 66 66 66 66 66 66 67 67 68 68 69 69 70 70 71 71 72 72 73 73 73 74 74 74 74 74 74 75 75 75 75 76 75 75 75 75 75 75 75 75 75 75 76 75 74 74 75 74 74 75 75 75 74 73 73 74 75 75 74 74 73 73 73 73 73 74 74 72 73
34 32 31 32 39 41 39 42 42 42 42 38 36 35 35 35 37 43 48 56 58 59 60 62 63 63 64 65 65 66 66 66 66 67 67 67 68 68 69 69 70 70 70 70 71 72 72 73 73 73 73 74 73 74 74 74 74 74 74 75 74 76 75 75 75 75 75 76 76 75 77 74 74 74 74 74 74 74 74 74 74 73 73 74 74 74 74 73 74 74 74 74 73 73 73 72 72
30 31 31 31 37 40 38 42 43 42 40 36 35 35 35 36 40 45 55 57 58 59 61 62 63 63 63 64 65 66 66 66 66 66 67 67 68 68 68 69 70 70 70 70 71 71 72 72 73 73 73 73 73 73 73 73 73 74 74 74 74 75 74 74 75 75 76 76 76 76 76 75 74 74 73 73 74 74 73 73 73 72 73 74 74 73 74 73 73 73 74 73 73 73 73 73 73
27 26 25 23 22 33 38 43 42 42 37 37 37 35 36 50 52 52 56 57 58 59 60 62 62 63 63 64 65 66 66 66 66 66 67 67 67 68 68 69 70 70 70 70 70 71 72 72 72 73 73 74 73 72 73 73 73 74 74 73 74 74 74 75 75 75 75 75 75 76 75 76 74 73 73 73 73 74 73 73 72 72 73 74 75 73 75 74 74 72 72 72 73 72 72 72 72
24 22 20 20 20 20 32 43 41 41 39 39 37 34 33 47 52 53 55 57 58 58 59 61 62 62 63 63 64 65 66 66 66 66 65 66 67 67 68 69 69 70 70 70 70 71 72 72 72 73 73 73 73 72 73 72 72 73 74 73 74 74 74 75 75 75 76 75 75 75 75 75 77 73 73 73 73 73 74 73 72 73 74 74 75 74 75 74 73 73 74 74 73 72 72 71 71
19 19 17 19 20 19 24 40 41 40 40 38 35 32 37 49 51 54 56 57 58 58 58 59 60 61 62 63 64 64 64 65 65 65 65 66 66 67 68 69 69 70 70 70 70 71 71 72 72 72 73 73 72 72 72 72 72 73 73 73 73 74 74 75 75 75 75 75 75 75 75 75 75 75 73 74 76 73 74 73 73 74 73 74 75 75 75 75 75 74 73 74 73 72 72 71 71
17 18 19 18 18 18 20 38 40 40 40 35 35 33 33 42 53 55 57 57 57 57 58 58 59 60 60 62 62 63 63 64 64 64 65 65 65 66 67 68 69 69 70 70 70 70 71 71 72 72 72 72 72 71 72 72 72 73 73 73 74 73 73 74 74 74 75 74 74 75 74 75 75 75 74 75 74 73 74 74 73 73 74 74 75 75 73 73 73 72 72 72 74 73 72 69 68
16 16 18 16 16 17 19 31 39 39 40 37 38 36 35 47 52 56 57 57 57 57 57 58 58 59 59 60 61 62 62 63 63 63 63 63 64 65 66 67 68 69 69 69 70 70 71 70 71 71 72 72 72 71 72 72 72 72 73 72 73 73 73 73 73 73 73 74 73 74 74 75 75 75 75 76 75 74 74 74 73 73 75 75 74 74 73 73 73 72 73 70 69 68 66 66 65
19 15 15 17 18 18 20 33 39 37 39 40 40 39 38 46 52 55 56 57 57 56 57 57 58 58 58 59 60 61 61 61 61 61 62 62 63 65 66 67 68 68 69 69 70 70 70 70 71 71 72 72 72 71 71 72 72 72 72 74 72 73 73 72 72 72 73 73 73 73 74 76 76 76 76 76 75 74 74 74 74 74 75 75 74 73 73 72 72 73 73 69 66 63 65 64 66
19 15 16 15 16 17 18 32 39 38 39 40 40 38 39 46 51 54 56 56 56 56 56 57 57 58 58 58 59 60 59 59 60 60 60 62 63 64 65 66 67 68 69 69 69 70 70 70 72 71 71 71 72 72 71 71 72 71 72 72 71 72 72 72 72 72 72 72 72 73 74 75 76 76 76 76 75 75 75 75 75 75 75 74 73 73 73 74 72 72 71 71 65 62 65 65 66
18 18 16 16 15 17 19 24 34 37 39 39 40 39 39 43 49 52 54 55 55 55 55 56 57 57 57 57 59 59 59 58 59 59 60 61 63 64 65 68 67 68 68 69 70 69 70 70 71 71 71 71 72 72 71 71 71 72 72 72 73 72 72 72 71 72 72 72 72 74 75 76 76 76 76 76 75 75 75 75 75 74 75 74 73 72 72 72 72 70 66 68 66 63 65 65 65
16 21 19 16 16 17 17 24 32 37 39 37 39 40 40 44 48 50 52 53 53 53 54 55 55 56 56 57 58 58 58 58 58 59 60 62 62 64 65 65 67 67 68 68 69 69 70 69 70 71 71 71 71 72 71 72 72 72 72 72 72 72 72 71 71 71 71 72 72 74 76 76 77 76 76 77 75 76 74 73 74 74 74 73 72 70 69 71 69 66 64 63 66 64 66 66 65
16 16 16 16 15 15 18 21 31 37 37 36 39 39 40 42 45 48 50 51 51 52 53 54 55 55 55 57 57 57 57 57 58 58 59 61 62 64 64 65 67 67 68 68 69 69 69 69 69 71 71 71 71 72 71 72 72 72 71 71 72 71 71 72 72 71 71 72 73 75 76 76 77 76 76 77 76 75 73 74 74 75 73 73 70 68 67 66 65 65 63 61 61 67 68 69 66
17 17 17 16 15 15 16 20 29 35 36 35 38 39 40 38 41 46 49 50 50 50 51 53 54 53 55 56 56 57 57 57 57 58 59 60 61 63 65 65 66 67 67 68 68 68 69 68 69 70 70 71 71 72 71 71 71 72 71 70 70 71 71 71 72 72 71 73 74 75 76 76 77 77 77 77 76 77 74 74 74 74 73 72 70 66 66 65 64 63 65 68 64 65 65 66 66
16 16 16 16 16 14 15 20 29 33 34 34 35 39 40 37 38 43 48 47 47 49 49 51 52 52 54 56 56 56 56 56 56 57 58 59 60 61 63 65 66 66 67 67 67 68 68 68 69 70 70 71 71 72 71 71 71 71 71 70 70 71 71 71 71 72 71 73 75 75 76 77 77 77 77 77 76 75 74 73 73 73 72 71 69 67 66 69 66 63 63 63 67 64 62 65 66
15 15 16 16 16 16 17 17 27 34 33 34 35 38 39 39 39 39 45 46 46 48 48 49 51 51 53 55 55 55 55 55 56 56 57 58 59 60 63 64 65 66 66 67 67 67 67 67 69 70 71 71 71 72 71 71 72 72 71 71 70 71 72 72 71 72 74 73 75 75 76 77 77 76 77 77 75 75 74 73 72 72 71 71 68 67 66 64 65 66 66 64 63 65 66 68 65
16 14 14 14 15 16 15 18 26 32 32 33 36 36 38 40 40 39 41 44 44 46 47 48 50 51 52 54 55 55 54 55 55 55 56 57 58 59 62 63 64 65 65 65 66 66 67 68 68 70 71 71 70 72 72 71 72 72 72 72 72 71 72 74 73 73 74 74 75 76 76 76 76 76 77 77 76 74 74 73 71 70 70 69 67 66 64 63 66 65 66 69 64 62 64 65 69
15 15 14 14 14 15 17 16 22 30 31 34 35 37 40 40 40 40 39 41 42 44 46 46 49 50 51 54 54 54 54 55 55 55 56 57 58 58 62 63 64 64 64 65 66 66 67 67 68 70 71 71 70 72 72 71 73 73 73 73 73 72 73 73 73 72 73 75 75 76 76 76 76 76 77 77 76 74 73 72 71 69 68 69 67 66 65 65 67 63 66 68 64 64 63 65 66
13 14 14 14 15 16 17 17 18 31 30 34 34 33 35 40 41 41 41 40 40 42 43 44 47 49 49 51 53 54 54 55 55 55 55 56 58 58 60 62 63 64 64 64 65 65 67 67 68 69 71 71 71 72 72 72 72 72 72 71 71 71 71 71 71 71 72 73 75 76 76 76 76 76 76 77 76 74 72 71 71 69 69 68 65 64 65 66 67 64 67 65 65 65 65 64 62
11 12 15 15 15 16 17 16 19 29 30 32 33 31 33 40 41 41 42 41 41 41 41 42 45 48 48 49 52 53 54 54 55 55 55 55 58 58 59 61 62 63 63 64 65 65 67 67 68 69 70 71 71 72 72 72 72 72 72 71 71 71 71 71 71 72 72 72 74 75 76 76 76 76 75 76 75 74 72 71 71 69 68 66 67 64 64 64 67 65 68 66 66 69 65 63 63
10 11 12 14 15 16 16 16 16 23 32 29 32 31 33 35 39 42 42 42 42 42 41 41 43 47 47 48 49 52 53 54 54 55 55 55 57 58 58 60 61 63 64 64 65 65 67 67 69 69 71 71 71 72 72 72 72 72 71 71 71 71 71 71 72 72 72 73 74 75 76 76 76 75 75 75 75 73 72 72 70 69 68 65 68 66 65 64 66 68 68 68 68 67 65 63 63
9 11 9 10 12 13 15 15 15 16 17 19 27 36 36 36 38 41 42 41 42 43 42 42 42 45 47 47 47 50 53 54 54 55 55 55 56 58 59 60 61 62 64 65 65 65 67 68 69 69 70 71 72 72 72 72 72 72 71 71 71 71 71 71 72 72 72 73 72 73 75 75 75 75 75 74 74 72 72 72 70 69 68 65 69 66 66 66 68 68 67 66 67 67 66 65 64
7 8 8 8 8 11 14 14 13 19 19 19 29 31 30 33 40 40 42 41 41 42 43 44 44 44 46 46 47 49 52 53 54 55 55 55 56 57 59 59 60 61 63 66 66 66 66 68 69 69 70 71 72 72 72 72 72 72 72 71 71 71 71 71 72 71 71 72 71 72 74 74 74 75 74 74 73 72 72 72 70 69 67 65 68 65 66 68 67 67 67 66 66 66 68 67 64
6 4 5 6 6 7 12 20 20 23 18 20 29 30 30 29 37 39 41 41 42 42 44 45 46 45 45 46 46 47 50 52 54 55 55 55 55 57 58 59 60 61 63 65 66 66 66 68 68 69 70 71 72 72 72 72 72 72 72 71 71 71 71 71 71 71 71 71 70 70 73 73 74 74 74 73 72 71 71 72 70 69 66 67 68 65 65 68 67 66 66 67 66 66 66 66 68
5 2 1 3 7 15 20 23 28 16 15 30 27 30 30 28 35 40 41 42 42 42 43 44 45 46 46 45 45 46 49 51 53 54 55 55 55 56 58 59 60 61 62 65 66 67 67 68 69 68 69 70 72 72 72 72 72 72 72 71 71 71 71 71 71 70 71 71 70 70 72 73 73 73 73 73 71 71 71 71 70 68 67 66 66 65 65 68 66 67 67 67 66 66 66 67 65
3 2 8 3 9 13 6 12 10 15 13 27 29 30 29 29 34 37 41 41 42 43 43 43 44 46 47 46 46 46 48 50 52 53 55 55 55 55 57 59 60 61 63 64 66 67 67 68 69 69 69 70 71 72 72 72 72 72 72 71 71 71 71 71 71 70 71 71 71 70 72 72 72 72 72 72 71 71 71 70 68 67 67 66 65 65 67 67 66 67 66 67 67 66 65 66 64
2 1 8 6 4 6 10 14 20 23 27 29 29 31 29 33 32 38 39 41 42 43 43 43 44 46 48 47 47 46 47 48 50 52 54 55 55 55 57 59 61 61 62 64 65 67 68 68 69 69 69 70 70 72 72 72 72 72 72 72 71 71 71 71 71 70 71 71 71 71 71 72 72 72 71 71 71 71 71 70 68 67 67 67 66 65 67 67 66 67 67 67 67 66 66 66 65
2 1 4 7 6 7 8 9 9 11 21 22 27 30 33 29 34 36 38 40 42 43 43 44 44 46 48 48 48 47 48 48 49 51 53 55 56 55 57 59 60 61 62 63 65 67 68 68 69 69 70 70 70 71 71 71 71 72 72 72 72 71 71 72 72 71 71 71 71 71 71 72 72 72 71 71 71 71 70 69 68 67 66 67 67 66 67 67 67 66 68 67 67 67 67 67 65
1 1 4 9 5 25 10 19 21 24 21 20 26 30 33 31 38 38 37 38 41 44 43 45 45 45 48 48 48 48 49 49 49 50 51 53 55 55 56 59 60 61 62 64 64 66 68 69 69 69 70 71 71 71 71 71 71 71 72 72 72 72 72 72 72 72 72 72 71 72 72 72 72 72 72 71 71 70 69 68 68 67 66 67 67 66 67 68 67 65 67 67 66 68 67 66 65
5 1 -0 1 15 7 19 32 29 28 25 15 33 31 29 34 35 36 37 38 39 42 43 43 44 45 47 48 48 48 49 50 50 51 51 53 55 56 56 58 60 61 62 64 65 66 67 69 69 69 69 71 71 71 71 71 71 71 72 72 72 72 72 72 72 72 72 72 72 72 72 72 72 72 72 71 70 70 69 68 68 66 66 67 67 67 67 67 67 66 66 66 66 67 67 66 66
4 0 1 10 13 17 13 7 19 11 14 20 18 17 24 28 29 38 37 37 38 40 43 43 44 45 46 47 48 49 49 51 51 52 53 53 54 56 55 58 60 61 62 64 65 66 67 68 69 69 69 70 71 72 71 71 71 71 71 72 72 72 72 72 72 72 72 72 72 72 72 72 72 72 72 71 70 69 69 69 67 67 66 66 67 66 66 66 67 66 66 66 66 67 66 66 66
3 1 4 0 9 3 18 20 8 10 9 15 19 22 26 29 30 37 35 35 36 38 41 42 43 44 45 46 48 49 49 50 51 52 53 54 54 56 56 57 60 61 63 64 65 66 67 68 69 69 69 70 71 72 72 72 71 71 71 72 72 72 73 73 73 72 72 72 72 72 72 72 72 72 72 71 69 68 68 67 67 67 67 66 67 67 67 66 67 65 66 66 66 67 66 66 66
12 8 4 3 9 6 8 12 22 15 18 18 14 20 18 32 28 34 33 35 35 36 38 40 42 43 45 46 47 48 49 50 51 52 53 54 55 55 56 57 59 61 62 63 65 65 66 67 69 69 70 70 71 71 72 72 72 72 71 72 72 73 73 73 73 73 72 72 72 72 72 72 72 72 71 71 69 69 68 67 66 67 67 66 66 67 67 67 66 65 65 66 66 66 66 66 65
12 11 8 10 13 16 5 18 9 16 23 18 16 13 23 31 37 33 33 35 36 36 37 40 41 43 44 45 46 48 48 49 50 52 53 54 55 55 57 57 59 61 63 63 64 65 66 67 68 69 70 70 70 71 72 72 72 72 72 72 72 73 73 73 73 73 72 72 73 72 72 72 72 72 71 70 70 69 68 67 66 66 67 66 66 67 68 67 66 65 65 65 65 66 66 66 66
12 12 11 9 5 8 6 8 19 18 16 19 19 12 29 33 35 37 34 35 35 35 36 38 41 42 44 45 46 47 48 49 50 52 53 54 56 56 56 58 60 61 62 63 64 65 66 67 67 69 69 70 70 71 71 72 72 72 72 72 72 73 73 73 73 73 73 72 73 72 72 72 72 72 71 70 70 69 68 67 66 66 66 67 67 66 67 67 67 66 65 65 65 66 65 66 66